Orbital Elements at Epoch 2459000.5 (2020-May-31.0) TDB
Reference: JPL 51 (heliocentric ecliptic J2000)
Element | Value | Uncertainty (1-sigma) | Units |
e | .3785730020216522 | 2.1891e-08 | |
a | .9554467662206922 | 8.3026e-10 | au |
q | .5937404156606451 | 2.0935e-08 | au |
i | 2.894484231459755 | 3.6618e-06 | deg |
node | 247.7926205966219 | 3.2268e-05 | deg |
peri | 134.2986482768172 | 3.3182e-05 | deg |
M | 8.209690803106495 | 4.4061e-06 | deg |
tp | 2458992.720844205935 (2020-May-23.22084421) | 4.1728e-06 | TDB |
period | 341.1207745855394 0.93 | 4.4464e-07 1.217e-09 | d yr |
n | 1.055344695547783 | 1.3756e-09 | deg/d |
Q | 1.31715311678074 | 1.1446e-09 | au |
|
| | Orbit Determination Parameters
Additional Information
|